This is the latest recevied weather packets stored in our database for station/object SQ5BUJ-13. If no packets are shown the sender has not sent any weather packets the latest 10 day(s).
| Time | Temp. | Humidity | Pressure | Rain* | Wind** | Luminosity | Snow |
|---|---|---|---|---|---|---|---|
| 1778185971 | 12.22° C | 73% | 1014.8 hPa | - | - | - | - |
| 1778184360 | 12.22° C | 74% | 1014.5 hPa | - | - | - | - |
| 1778182781 | 12.22° C | 74% | 1014.5 hPa | - | - | - | - |
| 1778181110 | 13.33° C | 73% | 1013.8 hPa | - | - | - | - |
| 1778179480 | 13.33° C | 73% | 1013.8 hPa | - | - | - | - |
| 1778177825 | 13.33° C | 73% | 1013.8 hPa | - | - | - | - |
| 1778176185 | 13.33° C | 72% | 1012.7 hPa | - | - | - | - |
| 1778172936 | 13.89° C | 70% | 1012.8 hPa | - | - | - | - |
| 1778171311 | 13.89° C | 70% | 1012.8 hPa | - | - | - | - |
| 1778169666 | 14.44° C | 68% | 1012.8 hPa | - | - | - | - |
| 1778168056 | 14.44° C | 68% | 1012.8 hPa | - | - | - | - |
| 1778166541 | 15° C | 67% | 1012.2 hPa | - | - | - | - |
| 1778164926 | 15° C | 67% | 1012.2 hPa | - | - | - | - |
| 1778163286 | 15° C | 67% | 1012.2 hPa | - | - | - | - |
| 1778161606 | 15° C | 72% | 1012.1 hPa | - | - | - | - |
| 1778158436 | 15.56° C | 68% | 1011.9 hPa | - | - | - | - |
| 1778156767 | 15.56° C | 68% | 1011.9 hPa | - | - | - | - |
| 1778155286 | 13.33° C | 82% | 1011.7 hPa | - | - | - | - |
| 1778153746 | 13.33° C | 82% | 1011.7 hPa | - | - | - | - |
| 1778152221 | 13.89° C | 79% | 1011.1 hPa | - | - | - | - |
| 1778150595 | 13.89° C | 79% | 1011.1 hPa | - | - | - | - |
| 1778148921 | 13.89° C | 79% | 1011.1 hPa | - | - | - | - |
| 1778147173 | 15.56° C | 75% | 1010.1 hPa | - | - | - | - |
| 1778144028 | 16.11° C | 74% | 1009.5 hPa | - | - | - | - |
| 1778142540 | 16.11° C | 74% | 1009.5 hPa | - | - | - | - |
* Rain since midnight (hover to see other rain measurements)
** Current wind speed in m/s (hover to see current wind gust speed)